Regional Weather Roundup
Issued by NWS Pendleton, OR

Home | Current Version | Previous Version | Text Only | Print | Product List | Glossary On
Versions: 1 2 3 4 5 6 7 8 9 10 11 12 13 14 15 16 17 18 19 20 21 22 23 24 25 26 27 28 29 30 31 32 33 34 35 36 37 38 39 40 41 42 43 44 45 46 47 48 49 50
425
ASUS46 KPDT 230925
RWRPDT
PENDLETON REGIONAL WEATHER ROUNDUP
NATIONAL WEATHER SERVICE PENDLETON OREGON
200 AM PDT SAT JUL 23 2016

NOTE: FAIR INDICATES FEW OR NO CLOUDS BELOW 12,000 FEET WITH NO
SIGNIFICANT WEATHER AND/OR OBSTRUCTIONS TO VISIBILITY.

# INDICATES UNOFFICIAL STATION AND DATA

WAZ520-231010-
EAST SLOPES OF WASHINGTON CASCADES

CITY            SKY/WX      TMP DP  RH  WIND    PRES   REMARKS
#CLE ELUM HS    N/A         56  47  72  W2      30.15F
#CLE ELUM 2NW   N/A         55  46  72  SW2     N/A
#GLENWOOD       N/A         44  42  93  CALM    30.15F
#MANASTASH CYN  N/A         47  41  79  CALM    30.16S
#NELSON 3SW     N/A         54  45  71  CALM    30.33F
#NILE           N/A         54  46  74  CALM    29.42F
#RONALD 2NW     N/A         55  N/A N/A CALM    30.26F
#TEANAWAY 4NE   N/A         55  49  80  CALM    N/A
#TROUT LAKE 1NE N/A         58  48  69  W3      30.15F
#TROUT LAKE 1E  N/A         52  47  83  CALM    30.16F
$$

WAZ521-231010-
SIMCOE HIGHLANDS

CITY            SKY/WX      TMP DP  RH  WIND    PRES   REMARKS
#CENTERVILLE 1SWN/A         55  47  74  W8      30.11F
#GOLDENDALE 1NE N/A         55  41  59  CALM    N/A
#GOLDENDALE 4W  N/A         55  52  90  W10     30.21F
#GOODNOE HILLS  N/A         59  51  75  NW8     30.09S
#LYLE 6NE       N/A         57  51  80  SW7     30.13F
$$

WAZ026-231010-
KITTITAS VALLEY

CITY            SKY/WX      TMP DP  RH  WIND    PRES   REMARKS
ELLENSBURG AP   PTCLDY      58  47  67  NW8     30.18F
#ELLENSBURG CWU N/A         57  47  69  N10     30.08F
#ELLENSBURG 3NE N/A         56  49  77  CALM    30.17F
#ELLENSBURG     N/A         61  51  70  NW7     N/A
#ELLENSBURG 1E  N/A         58  N/A N/A CALM    N/A
#KITTITAS 4N    N/A         56  46  69  W8      30.18F
#KITTITAS 3S    N/A         52  47  83  CALM    30.11S
#THORP 6N       N/A         56  47  72  N15G30  30.12F
$$

WAZ027-231010-
YAKIMA VALLEY

CITY            SKY/WX      TMP DP  RH  WIND    PRES   REMARKS
SUNNYSIDE AP    PTCLDY      51  47  86  NE3     30.16S
YAKIMA AIRPORT  PTCLDY      59  45  60  SW3     30.17F
YAKIMA-VAGABOND N/A         60  44  55  N6      30.15F
#DONALD 2NE     N/A         63  29  28  W1      30.14S
#GRANDVIEW      N/A         57  47  69  CALM    30.14S
#MABTON         N/A         64  49  58  S3      30.16S
#NACHES 2SW     N/A         58  47  67  W7      30.20S
#TERRACE HTS    N/A         61  46  58  N6      30.08F
#WEST VALLEY    N/A         61  46  58  NW7     30.10F
#W YAKIMA       N/A         61  47  60  W2      30.11F
#WHITE SWAN 5E  N/A         56  48  74  CALM    30.12F
#WILEY CITY 3W  N/A         49  39  68  CALM    30.14F
$$

WAZ028-231010-
LOWER COLUMBIA BASIN...WASHINGTON

CITY            SKY/WX      TMP DP  RH  WIND    PRES   REMARKS
PASCO           PTCLDY      63  46  54  CALM    30.16S
PROSSER AWOS    N/A         55  52  90  CALM    30.19F
RICHLAND AWOS   PTCLDY      60  49  67  CALM    30.16S
#BENTON CITY    N/A         58  49  72  CALM    30.04S
#CONNELL 5N     N/A         57  48  72  SW5     30.10S
#CONNELL 5NW    N/A         56  50  80  SW1     30.07S
#ELTOPIA 6NW    N/A         60  49  67  CALM    29.12S
#KAHLOTUS       N/A         57  45  64  W6      30.10S
#KENNEWICK 3S   N/A         61  52  72  SE3     30.13F
#PATERSON       N/A         61  53  75  N3      30.12F
#SAGEMOOR 2W    N/A         60  49  67  W5      29.98R
#TOUCHET 2S     N/A         63  51  65  SW10    30.12F
#WEST PASCO     N/A         62  49  62  S1      30.14F
$$

WAZ029-231010-
FOOTHILLS OF THE BLUES...WASHINGTON

CITY            SKY/WX      TMP DP  RH  WIND    PRES   REMARKS
WALLA WALLA AP  CLEAR       61  48  62  S8      30.18F
#CLYDE 6NW      N/A         56  46  69  CALM    30.11S
#LOWDEN 2SE     N/A         61  51  70  NW1     30.13F
#PLEASANT VIEW 1N/A         55  44  66  S7      30.13F
#PRESCOTT       N/A         59  50  72  CALM    30.12S
#WHITMAN COLLEGEN/A         62  50  65  S2      30.18F
#WAITSBURG 5S   N/A         58  49  72  S6      30.21S
#WAITSBURG 8N   N/A         57  25  29  S6      30.13R
#WALLA WALLA U  N/A         63  51  65  CALM    30.14S
#WHITMAN MISSIONN/A         59  51  75  CALM    30.16S
$$

WAZ030-231010-
BLUE MOUNTAINS...WASHINGTON

CITY            SKY/WX      TMP DP  RH  WIND    PRES   REMARKS
#DIXIE 5SE      N/A         56  47  72  S7      30.14F
$$

ORZ009-041-WAZ024-231010-
COLUMBIA RIVER GORGE

CITY            SKY/WX      TMP DP  RH  WIND    PRES   REMARKS
HOOD RIVER AP   MOCLDY      57  52  83  CALM    30.22F
THE DALLES AP   PTCLDY      63  50  62  NW7     30.18F
#ARLINGTON AIRPON/A         59  51  75  W1      30.16S
#LYLE           N/A         64  55  73  NW7     30.19F
#MARYHILL 2W    N/A         61  54  78  SE5     N/A
#MOSIER 1S      N/A         60  45  58  W6      30.18F
#MURDOCK        N/A         65  53  65  NW13    30.13F
#RUFUS DOT      N/A         65  53  65  W10     N/A
#SMITHVILLE     N/A         64  53  67  W12     30.19S

$$

ORZ510-231010-
NORTH CENTRAL OREGON

CITY            SKY/WX      TMP DP  RH  WIND    PRES   REMARKS
#ANTELOPE       N/A         47  41  79  NE1     30.02F
#CHENOWITH 1W   N/A         56  50  80  NW22    N/A
#DUFUR 9E       N/A         55  49  80  NW1     30.21F
#GRASS VALLEY 1SN/A         50  45  83  CALM    30.15F
#KENT DOT       N/A         49  41  74  N6      N/A
#SHANIKO 5WSW   N/A         52  40  63  N8      N/A
#SHANIKO 4NW    N/A         51  49  93  W8      30.25F
#TYGH VALLEY 2NEN/A         53  46  77  CALM    30.16S
#WAPANITIA AIRPON/A         55  48  77  W1      30.16F
#WASCO 5NE      N/A         58  50  75  W9      30.14S
$$

ORZ511-231010-
CENTRAL OREGON

CITY            SKY/WX      TMP DP  RH  WIND    PRES   REMARKS
BEND AIRPORT    CLEAR       50  43  77  CALM    N/A
MADRAS AIRPORT  CLEAR       54  46  74  CALM    30.27S
PRINEVILLE AP   CLEAR       46  43  89  S3      30.26S
REDMOND AIRPORT CLEAR       48  41  77  S3      30.25F
#ASHWOOD SCHOOL N/A         51  44  77  CALM    30.19F
#BEND 1SW       N/A         47  41  79  CALM    N/A
#BEND-AWBREY    N/A         54  45  71  CALM    30.26F
#CULVER         N/A         52  45  77  CALM    30.09F
#CULVER 8W      N/A         50  44  80  CALM    30.21F
#LAKE BILLY CHINN/A         54  N/A N/A CALM    30.26F
#MADRAS 4S      N/A         N/A N/A N/A W12     30.29S
#POWELL BUTTE   N/A         52  41  66  CALM    30.17F
#PRINEVILLE 3N  N/A         48  44  86  E2      30.20S
#WARM SPRINGS   N/A         55  46  72  CALM    30.19F

$$


ORZ509-231010-
EAST SLOPES OF OREGON CASCADES

CITY            SKY/WX      TMP DP  RH  WIND    PRES   REMARKS
SISTERS AWOS    N/A         45  39  79  CALM    30.22F
#CAMP SHERMAN   N/A         51  44  77  CALM    30.19F
#LA PINE 4NW    N/A         39  33  79  CALM    30.20F
#LAVA BUTTE DOT N/A         44  40  86  CALM    N/A
#SISTERS AIRPOR N/A         45  43  93  CALM    30.17S
#SISTERS ODOT   N/A         43  N/A N/A CALM    N/A
#SISTERS 3N     N/A         45  36  70  CALM    30.23S
#SUNRIVER       N/A         44  39  82  CALM    30.15F
#SUTTLE LK DOT  N/A         48  45  89  N3      N/A
#TUMALO 3W      N/A         52  43  71  SW1     30.03F
#WANOGA BUTTE D N/A         49  35  58  CALM    N/A

$$

ORZ044-231010-
LOWER COLUMBIA BASIN...OREGON

CITY            SKY/WX      TMP DP  RH  WIND    PRES   REMARKS
HERMISTON       CLEAR       62  49  62  SW8     30.17S
#BOARDMAN 8SW   N/A         58  51  77  SW7     30.15F
#ECHO 8SW       N/A         61  47  60  SW5     30.17F
#I-84 EX 198 DOTN/A         61  49  65  E8      N/A
#UMATILLA       N/A         62  48  60  CALM    30.08F
$$

ORZ507-231010-
NORTHERN FOOTHILLS OF THE BLUES

CITY            SKY/WX      TMP DP  RH  WIND    PRES   REMARKS
PENDLETON AIRPT CLEAR       56  45  66  N5      30.20S
#ADAMS 3WNW     N/A         53  45  74  CALM    30.14S
#ATHENA         N/A         55  48  77  CALM    30.16F
#CAYUSE         N/A         57  48  72  E1      30.13F
#HELIX SCHOOL   N/A         56  47  72  CALM    30.13F
#HELIX 3N       N/A         54  47  77  SW3     30.16F
#HOLDMAN 5SE    N/A         56  47  72  CALM    30.18F
#HOLDMAN 6E     N/A         56  47  72  N2      29.95F
#M-F GROVE ELEM N/A         60  46  60  CALM    30.16S
#M-FREEWATER 5SEN/A         62  49  62  S1      30.17F
#PENDLETON DNTN N/A         60  42  51  CALM    30.19F
#PDT AQUATIC CTRN/A         60  40  47  CALM    30.03F
#PDT SUNRIDGE   N/A         55  46  72  CALM    30.20F
#PENDLETON 7NW  N/A         60  46  60  CALM    32.29S
#PILOT ROCK 1S  N/A         55  42  61  CALM    30.20F
#PILOT ROCK     N/A         56  42  59  CALM    30.21F
#TUTUILLA       N/A         50  44  80  CALM    30.16S
#UMAPINE 2E     N/A         61  51  70  SW3     30.14F
#WESTON SCHOOL  N/A         57  45  64  N1      30.05F

$$

ORZ508-231010-
SOUTHERN FOOTHILLS OF THE BLUES

CITY            SKY/WX      TMP DP  RH  WIND    PRES   REMARKS
LEXINGTON       CLEAR       55  46  72  SE6     30.24F
#CONDON 5W      N/A         51  42  71  SW3     30.21F
#HEPPNER EOC    N/A         55  45  69  SW7     30.09F
#HEPPNER 4NE    N/A         53  45  74  S2      30.14S
#LEXINGTON 2SE  N/A         55  45  69  CALM    30.17F
#RUGGS 5NE      N/A         53  45  74  W3      30.40S
#RUGGS 2SW      N/A         53  43  69  SW5     30.15F

$$

ORZ502-503-231010-
BLUE MOUNTAINS

CITY            SKY/WX      TMP DP  RH  WIND    PRES   REMARKS
MEACHAM         CLEAR       44  39  82  CALM    30.25F
#BATTLE MTN DOT N/A         46  40  79  CALM    N/A
#CUTSFORTH PARK N/A         42  39  89  CALM    30.03F
#GREENHORN 9SW  N/A         46  40  79  CALM    30.23S
#HARDMAN 10S    N/A         61  34  36  N5      30.22S
#HEPPNER 15SE   N/A         47  41  79  S1      25.75F
#LADD CYN SMT   N/A         50  43  77  CALM    N/A
#LADD CREEK ODOTN/A         51  44  77  CALM    N/A
#LONG CREEK HS  N/A         48  46  93  CALM    N/A
#N POWDER DOT   N/A         52  45  77  N10     N/A
#PIKES PEAK     N/A         53  46  77  S16     27.99S
#TOLLGATE       N/A         45  43  93  CALM    30.10F
#TROY SCHOOL    N/A         61  50  67  CALM    29.94R
#UKIAH          N/A         43  41  93  CALM    30.05F
#WESTON 4E      N/A         53  47  80  SW2     30.08F
$$

ORZ505-231010-
JOHN DAY BASIN

CITY            SKY/WX      TMP DP  RH  WIND    PRES   REMARKS
JOHN DAY        CLEAR       56  44  64  CALM    30.25F
#DAYVILLE SCHOOLN/A         58  43  57  CALM    30.18S
#MITCHELL       N/A         51  45  80  CALM    30.39F
#MITCHELL 8NW   N/A         54  44  69  CALM    30.32F
#MONUMENT HS    N/A         55  45  69  CALM    30.13F
#MT. VERNON 5SE N/A         55  44  66  CALM    30.21F
#SPRAY SCHOOL   N/A         53  N/A N/A CALM    N/A
$$

ORZ506-231010-
OCHOCO AND JOHN DAY HIGHLANDS

CITY            SKY/WX      TMP DP  RH  WIND    PRES   REMARKS
#HORSE RIDGE DO N/A         43  38  82  CALM    N/A
#KEYES SMT DOT  N/A         51  42  71  S16     N/A
#PAULINA SCHOOL N/A         51  41  68  SW1     N/A
#PINE MTN OBS   N/A         47  36  65  NW9     N/A
#PRAIRIE CITY   N/A         48  41  77  CALM    30.40S
#SENECA         N/A         48  N/A N/A CALM    N/A
#SENECA 9NW     N/A         45  38  76  CALM    30.04S
$$

ORZ049-231010-
GRANDE RONDE VALLEY

CITY            SKY/WX      TMP DP  RH  WIND    PRES   REMARKS
LA GRANDE       CLEAR       57  39  51  N8      30.21S
#COVE           N/A         51  46  83  E2      30.22F
#COVE SCHOOL    N/A         50  43  77  CALM    30.21F
#COVE 6NW       N/A         51  43  74  CALM    30.09F
#ELGIN 3N       N/A         55  44  66  CALM    30.17S
#ELGIN 1E       N/A         54  44  69  E1      N/A
#ISLAND CITY 4N N/A         55  52  90  CALM    30.27F
#LADD CYN DOT   N/A         57  46  67  S1      N/A
#UNION 1S       N/A         55  45  69  NE1     30.01S
$$

ORZ050-231010-
WALLOWA COUNTY

CITY            SKY/WX      TMP DP  RH  WIND    PRES   REMARKS
JOSEPH AIRPORT  CLEAR       46  39  76  S3      N/A
#ENTERPRISE AP  N/A         49  29  46  CALM    30.16S
#ENTERPRISE HS  N/A         47  41  79  CALM    30.23S
#IMNAHA SCHOOL  N/A         59  46  62  N2      30.16S
#JOSEPH 3N      N/A         43  35  73  CALM    30.24S
#JOSEPH 3W      N/A         46  41  83  SW5     30.09S
#LOSTINE        N/A         47  41  79  CALM    29.93R
#LOSTINE 3SE    N/A         48  39  71  S1      30.21R
#MT HOWARD 8000 N/A         41  34  76  W1      30.36F
#PROMISE 1S     N/A         52  46  80  CALM    30.21R
#WALLOWA SCHOOL N/A         53  44  71  CALM    30.17S



$$



USA.gov is the U.S. government's official web portal to all federal, state and local government web resources and services.